| time (UTC) | temp F | wind direction | speed MPH | gust MPH | rain 1hr in | rain 24hr in | rain mn in | humidity % | barometer mb |
| 20260906064441 | 70 | 174 | 0.0 | 0.0 | 0.00 | 0.00 | 0.00 | 99 | 1012.8 |
| 20260906063936 | 71 | 175 | 0.0 | 0.0 | 0.00 | 0.00 | 0.00 | 99 | 1013.1 |
| 20260906063432 | 71 | 175 | 0.0 | 0.0 | 0.00 | 0.00 | 0.00 | 99 | 1013.0 |
| 20260906062926 | 71 | 174 | 0.0 | 0.0 | 0.00 | 0.00 | 0.00 | 99 | 1013.2 |
| 20260906062421 | 71 | 174 | 0.0 | 0.0 | 0.00 | 0.00 | 0.00 | 99 | 1013.4 |
| 20260906061915 | 71 | 194 | 0.0 | 0.0 | 0.00 | 0.00 | 0.00 | 99 | 1013.2 |
| 20260906061411 | 71 | 194 | 0.0 | 0.0 | 0.00 | 0.00 | 0.00 | 99 | 1013.3 |
| 20260906060906 | 71 | 195 | 0.0 | 1.0 | 0.00 | 0.00 | 0.00 | 99 | 1013.5 |
| 20260906060403 | 71 | 183 | 0.0 | 0.0 | 0.00 | 0.00 | 0.00 | 99 | 1013.4 |
| 20260906055859 | 71 | 186 | 0.0 | 0.0 | 0.00 | 0.00 | 0.00 | 99 | 1013.5 |
| 20260906055355 | 71 | 186 | 0.0 | 0.0 | 0.00 | 0.00 | 0.00 | 99 | 1013.7 |
| 20260906054849 | 71 | 186 | 0.0 | 0.0 | 0.00 | 0.00 | 0.00 | 99 | 1013.5 |
| 20260906054344 | 71 | 169 | 0.0 | 0.0 | 0.00 | 0.00 | 0.00 | 99 | 1013.6 |
| 20260906053841 | 70 | 149 | 0.0 | 0.0 | 0.00 | 0.00 | 0.00 | 99 | 1013.7 |
| 20260906053337 | 71 | 126 | 1.0 | 1.0 | 0.00 | 0.00 | 0.00 | 99 | 1013.6 |
| 20260906052832 | 71 | 135 | 0.0 | 0.0 | 0.00 | 0.00 | 0.00 | 99 | 1013.7 |
| 20260906052328 | 71 | 197 | 0.0 | 0.0 | 0.00 | 0.00 | 0.00 | 99 | 1013.9 |
| 20260906051825 | 71 | 197 | 0.0 | 0.0 | 0.00 | 0.00 | 0.00 | 99 | 1013.9 |
| 20260906051324 | 71 | 197 | 0.0 | 0.0 | 0.00 | 0.00 | 0.00 | 99 | 1014.0 |
| 20260906050820 | 71 | 196 | 1.0 | 1.0 | 0.00 | 0.00 | 0.00 | 99 | 1013.9 |
| 20260906050315 | 71 | 192 | 0.0 | 0.0 | 0.00 | 0.00 | 0.00 | 99 | 1014.0 |
| 20260906045814 | 71 | 192 | 0.0 | 0.0 | 0.00 | 0.00 | 0.00 | 99 | 1014.3 |
| 20260906045308 | 71 | 191 | 0.0 | 0.0 | 0.00 | 0.00 | 0.00 | 99 | 1014.1 |
| 20260906044805 | 71 | 192 | 0.0 | 0.0 | 0.00 | 0.00 | 0.00 | 99 | 1014.0 |
| 20260906044300 | 71 | 191 | 0.0 | 0.0 | 0.00 | 0.00 | 0.00 | 99 | 1014.2 |
| 20260906043756 | 71 | 190 | 0.0 | 0.0 | 0.00 | 0.00 | 0.00 | 99 | 1014.0 |
| 20260906043251 | 71 | 190 | 0.0 | 0.0 | 0.00 | 0.00 | 0.00 | 99 | 1014.1 |
| 20260906042751 | 71 | 190 | 0.0 | 0.0 | 0.00 | 0.00 | 0.00 | 99 | 1014.0 |
| 20260906042250 | 71 | 190 | 0.0 | 0.0 | 0.00 | 0.00 | 0.00 | 99 | 1013.9 |
| 20260906041746 | 71 | 190 | 0.0 | 0.0 | 0.00 | 0.00 | 0.00 | 99 | 1014.3 |
| 20260906041240 | 71 | 190 | 0.0 | 0.0 | 0.00 | 0.00 | 0.00 | 99 | 1014.5 |
| 20260906040736 | 71 | 190 | 0.0 | 0.0 | 0.00 | 0.00 | 0.00 | 99 | 1014.0 |
| 20260906040231 | 71 | 190 | 0.0 | 0.0 | 0.00 | 0.00 | 0.00 | 99 | 1014.1 |
| 20260906035721 | 71 | 190 | 0.0 | 0.0 | 0.00 | 0.00 | 0.00 | 99 | 1014.2 |
| 20260906035216 | 72 | 190 | 0.0 | 0.0 | 0.00 | 0.00 | 0.00 | 99 | 1014.4 |
| 20260906034716 | 72 | 190 | 0.0 | 0.0 | 0.00 | 0.00 | 0.00 | 99 | 1014.4 |
| 20260906034211 | 72 | 190 | 0.0 | 0.0 | 0.00 | 0.00 | 0.00 | 98 | 1014.6 |
| 20260906033707 | 72 | 190 | 0.0 | 0.0 | 0.00 | 0.00 | 0.00 | 98 | 1014.4 |
| 20260906033206 | 72 | 190 | 0.0 | 1.0 | 0.00 | 0.00 | 0.00 | 98 | 1014.4 |
| 20260906032703 | 72 | 166 | 0.0 | 0.0 | 0.00 | 0.00 | 0.00 | 98 | 1014.4 |
| 20260906032158 | 72 | 165 | 0.0 | 0.0 | 0.00 | 0.00 | 0.00 | 98 | 1014.5 |
| 20260906031654 | 72 | 165 | 0.0 | 0.0 | 0.00 | 0.00 | 0.00 | 98 | 1014.5 |
| 20260906031149 | 72 | 166 | 0.0 | 0.0 | 0.00 | 0.00 | 0.00 | 97 | 1014.5 |
| 20260906030648 | 72 | 166 | 0.0 | 0.0 | 0.00 | 0.00 | 0.00 | 97 | 1014.6 |
| 20260906030144 | 72 | 166 | 0.0 | 0.0 | 0.00 | 0.00 | 0.00 | 97 | 1014.5 |
| 20260906025642 | 72 | 165 | 0.0 | 0.0 | 0.00 | 0.00 | 0.00 | 97 | 1014.3 |
| 20260906025142 | 72 | 153 | 0.0 | 0.0 | 0.00 | 0.00 | 0.00 | 97 | 1014.3 |
| 20260906024636 | 72 | 142 | 0.0 | 1.0 | 0.00 | 0.00 | 0.00 | 97 | 1014.3 |
| 20260906024130 | 73 | 142 | 0.0 | 1.0 | 0.00 | 0.00 | 0.00 | 97 | 1014.4 |
| 20260906023627 | 72 | 129 | 0.0 | 0.0 | 0.00 | 0.00 | 0.00 | 97 | 1014.2 |
| 20260906023126 | 73 | 192 | 0.0 | 0.0 | 0.00 | 0.00 | 0.00 | 97 | 1014.1 |
| 20260906022621 | 73 | 190 | 0.0 | 1.0 | 0.00 | 0.00 | 0.00 | 97 | 1014.1 |
| 20260906022117 | 73 | 185 | 0.0 | 0.0 | 0.00 | 0.00 | 0.00 | 96 | 1014.0 |
| 20260906021613 | 73 | 185 | 0.0 | 0.0 | 0.00 | 0.00 | 0.00 | 96 | 1014.0 |
| 20260906021111 | 73 | 184 | 1.0 | 1.0 | 0.00 | 0.00 | 0.00 | 96 | 1013.8 |
| 20260906020611 | 73 | 185 | 0.0 | 0.0 | 0.00 | 0.00 | 0.00 | 95 | 1014.0 |
| 20260906020106 | 73 | 185 | 0.0 | 0.0 | 0.00 | 0.00 | 0.00 | 95 | 1013.8 |
| 20260906015559 | 73 | 150 | 0.0 | 0.0 | 0.00 | 0.00 | 0.00 | 95 | 1013.8 |
| 20260906015059 | 73 | 149 | 0.0 | 0.0 | 0.00 | 0.00 | 0.00 | 95 | 1013.8 |
| 20260906014554 | 73 | 138 | 1.0 | 1.0 | 0.00 | 0.00 | 0.00 | 95 | 1013.9 |
| 20260906014050 | 73 | 186 | 0.0 | 0.0 | 0.00 | 0.00 | 0.00 | 95 | 1013.8 |
| 20260906013544 | 73 | 186 | 0.0 | 0.0 | 0.00 | 0.00 | 0.00 | 95 | 1013.8 |
| 20260906013040 | 73 | 186 | 0.0 | 0.0 | 0.00 | 0.00 | 0.00 | 95 | 1013.9 |
| 20260906012535 | 73 | 186 | 1.0 | 1.0 | 0.00 | 0.00 | 0.00 | 95 | 1014.0 |
| 20260906012034 | 74 | 201 | 1.0 | 1.0 | 0.00 | 0.00 | 0.00 | 95 | 1013.8 |
| 20260906011531 | 74 | 196 | 0.0 | 1.0 | 0.00 | 0.00 | 0.00 | 94 | 1013.5 |
| 20260906011030 | 74 | 191 | 0.0 | 1.0 | 0.00 | 0.00 | 0.00 | 93 | 1013.4 |
| 20260906010526 | 74 | 191 | 1.0 | 1.0 | 0.00 | 0.00 | 0.00 | 93 | 1013.2 |
| 20260906010022 | 74 | 190 | 1.0 | 1.0 | 0.00 | 0.00 | 0.00 | 92 | 1013.3 |
| 20260906005521 | 74 | 194 | 1.0 | 1.0 | 0.00 | 0.00 | 0.00 | 92 | 1013.4 |
| 20260906005020 | 75 | 193 | 1.0 | 1.0 | 0.00 | 0.00 | 0.00 | 92 | 1013.3 |
| 20260906004515 | 75 | 193 | 0.0 | 0.0 | 0.00 | 0.00 | 0.00 | 92 | 1013.7 |
| 20260906004009 | 75 | 182 | 1.0 | 1.0 | 0.00 | 0.00 | 0.00 | 91 | 1013.6 |
| 20260906003504 | 75 | 186 | 1.0 | 1.0 | 0.00 | 0.00 | 0.00 | 90 | 1013.4 |
| 20260906003000 | 76 | 178 | 0.0 | 0.0 | 0.00 | 0.00 | 0.00 | 90 | 1013.4 |
| 20260906002454 | 76 | 178 | 1.0 | 1.0 | 0.00 | 0.00 | 0.00 | 89 | 1013.2 |
| 20260906001949 | 76 | 178 | 0.0 | 0.0 | 0.00 | 0.00 | 0.00 | 89 | 1013.4 |
| 20260906001445 | 76 | 182 | 0.0 | 1.0 | 0.00 | 0.00 | 0.00 | 88 | 1013.4 |
| 20260906000939 | 76 | 183 | 1.0 | 1.0 | 0.00 | 0.00 | 0.00 | 88 | 1013.2 |
| 20260906000436 | 77 | 201 | 0.0 | 1.0 | 0.00 | 0.00 | 0.00 | 86 | 1013.4 |
| 20260905235925 | 77 | 173 | 0.0 | 1.0 | 0.00 | 0.00 | 0.00 | 85 | 1013.2 |
| 20260905235424 | 78 | 145 | 0.0 | 0.0 | 0.00 | 0.00 | 0.00 | 84 | 1013.1 |
| 20260905234919 | 78 | 144 | 0.0 | 0.0 | 0.00 | 0.00 | 0.00 | 83 | 1012.8 |
| 20260905234414 | 78 | 144 | 0.0 | 0.0 | 0.00 | 0.00 | 0.00 | 82 | 1012.6 |
| 20260905233909 | 79 | 142 | 0.0 | 1.0 | 0.00 | 0.00 | 0.00 | 80 | 1012.9 |
| 20260905233404 | 80 | 164 | 0.0 | 0.0 | 0.00 | 0.00 | 0.00 | 79 | 1012.5 |
| 20260905232903 | 80 | 184 | 0.0 | 1.0 | 0.00 | 0.00 | 0.00 | 78 | 1012.5 |
| 20260905232400 | 81 | 152 | 0.0 | 0.0 | 0.00 | 0.00 | 0.00 | 76 | 1012.4 |
| 20260905231855 | 82 | 219 | 0.0 | 0.0 | 0.00 | 0.00 | 0.00 | 73 | 1012.5 |
| 20260905231350 | 82 | 210 | 0.0 | 0.0 | 0.00 | 0.00 | 0.00 | 72 | 1012.5 |
| 20260905230847 | 82 | 206 | 0.0 | 0.0 | 0.00 | 0.00 | 0.00 | 72 | 1012.5 |
| 20260905230344 | 82 | 21 | 1.0 | 2.0 | 0.00 | 0.00 | 0.00 | 72 | 1012.5 |
| 20260905225844 | 82 | 312 | 2.0 | 2.0 | 0.00 | 0.00 | 0.00 | 71 | 1012.5 |
| 20260905225338 | 84 | 357 | 3.0 | 3.0 | 0.00 | 0.00 | 0.00 | 69 | 1012.9 |
| 20260905224833 | 84 | 281 | 1.0 | 1.0 | 0.00 | 0.00 | 0.00 | 69 | 1012.7 |
| 20260905224329 | 84 | 278 | 1.0 | 1.0 | 0.00 | 0.00 | 0.00 | 68 | 1012.7 |
| 20260905223824 | 84 | 321 | 2.0 | 2.0 | 0.00 | 0.00 | 0.00 | 68 | 1012.8 |
| 20260905223321 | 85 | 199 | 0.0 | 1.0 | 0.00 | 0.00 | 0.00 | 66 | 1012.7 |
| 20260905222816 | 85 | 154 | 1.0 | 1.0 | 0.00 | 0.00 | 0.00 | 67 | 1012.4 |
| 20260905222315 | 85 | 279 | 2.0 | 2.0 | 0.00 | 0.00 | 0.00 | 67 | 1012.4 |
| 20260905221811 | 84 | 258 | 1.0 | 1.0 | 0.00 | 0.00 | 0.00 | 67 | 1012.5 |
| 20260905221308 | 83 | 358 | 1.0 | 2.0 | 0.00 | 0.00 | 0.00 | 68 | 1012.5 |
| 20260905220803 | 82 | 327 | 2.0 | 2.0 | 0.00 | 0.00 | 0.00 | 70 | 1012.6 |
| 20260905220259 | 82 | 206 | 0.0 | 1.0 | 0.00 | 0.00 | 0.00 | 71 | 1012.6 |
| 20260905215758 | 82 | 350 | 1.0 | 1.0 | 0.00 | 0.00 | 0.00 | 72 | 1012.9 |
| 20260905215254 | 82 | 287 | 2.0 | 2.0 | 0.00 | 0.00 | 0.00 | 71 | 1013.0 |
| 20260905214750 | 82 | 348 | 2.0 | 2.0 | 0.00 | 0.00 | 0.00 | 72 | 1012.9 |
| 20260905214246 | 82 | 254 | 3.0 | 3.0 | 0.00 | 0.00 | 0.00 | 73 | 1012.8 |
| 20260905213741 | 82 | 8 | 1.0 | 1.0 | 0.00 | 0.00 | 0.00 | 73 | 1013.2 |
| 20260905213237 | 81 | 214 | 0.0 | 0.0 | 0.00 | 0.00 | 0.00 | 73 | 1013.3 |
| 20260905212732 | 82 | 74 | 2.0 | 2.0 | 0.00 | 0.00 | 0.00 | 73 | 1013.3 |
| 20260905212231 | 81 | 211 | 1.0 | 1.0 | 0.00 | 0.00 | 0.00 | 73 | 1013.3 |
| 20260905211730 | 81 | 251 | 1.0 | 1.0 | 0.00 | 0.00 | 0.00 | 74 | 1013.4 |
| 20260905211226 | 81 | 111 | 0.0 | 1.0 | 0.00 | 0.00 | 0.00 | 74 | 1013.4 |
| 20260905210723 | 81 | 155 | 0.0 | 0.0 | 0.00 | 0.00 | 0.00 | 74 | 1013.6 |
| 20260905210222 | 80 | 206 | 0.0 | 0.0 | 0.00 | 0.00 | 0.00 | 75 | 1013.5 |
| 20260905205721 | 80 | 169 | 0.0 | 1.0 | 0.00 | 0.00 | 0.00 | 76 | 1013.6 |
| 20260905205216 | 80 | 223 | 2.0 | 2.0 | 0.00 | 0.00 | 0.00 | 77 | 1013.4 |
| 20260905204716 | 80 | 317 | 4.0 | 5.0 | 0.00 | 0.00 | 0.00 | 77 | 1013.6 |
| 20260905204212 | 80 | 303 | 1.0 | 2.0 | 0.00 | 0.00 | 0.00 | 77 | 1013.3 |
| 20260905203706 | 80 | 69 | 1.0 | 1.0 | 0.00 | 0.00 | 0.00 | 77 | 1013.2 |
| 20260905203202 | 80 | 193 | 0.0 | 0.0 | 0.00 | 0.00 | 0.00 | 76 | 1013.4 |
| 20260905202657 | 80 | 244 | 1.0 | 2.0 | 0.00 | 0.00 | 0.00 | 76 | 1013.2 |
| 20260905202152 | 80 | 82 | 1.0 | 1.0 | 0.00 | 0.00 | 0.00 | 76 | 1013.2 |
| 20260905201648 | 80 | 13 | 2.0 | 3.0 | 0.00 | 0.00 | 0.00 | 74 | 1013.2 |
| 20260905201147 | 80 | 311 | 2.0 | 2.0 | 0.00 | 0.00 | 0.00 | 74 | 1013.4 |
| 20260905200643 | 80 | 5 | 1.0 | 2.0 | 0.00 | 0.00 | 0.00 | 74 | 1013.4 |
| 20260905200138 | 80 | 251 | 1.0 | 1.0 | 0.00 | 0.00 | 0.00 | 75 | 1013.8 |
| 20260905195636 | 80 | 315 | 3.0 | 3.0 | 0.00 | 0.00 | 0.00 | 75 | 1013.8 |
| 20260905195131 | 80 | 290 | 2.0 | 2.0 | 0.00 | 0.00 | 0.00 | 74 | 1013.7 |
| 20260905194627 | 81 | 300 | 2.0 | 2.0 | 0.00 | 0.00 | 0.00 | 73 | 1013.7 |
| 20260905194126 | 80 | 296 | 2.0 | 2.0 | 0.00 | 0.00 | 0.00 | 72 | 1013.4 |
| 20260905193621 | 81 | 46 | 1.0 | 2.0 | 0.00 | 0.00 | 0.00 | 72 | 1013.2 |
| 20260905193121 | 81 | 132 | 0.0 | 0.0 | 0.00 | 0.00 | 0.00 | 71 | 1013.3 |
| 20260905192617 | 81 | 76 | 2.0 | 3.0 | 0.00 | 0.00 | 0.00 | 70 | 1013.2 |
| 20260905192113 | 82 | 83 | 1.0 | 1.0 | 0.00 | 0.00 | 0.00 | 69 | 1013.2 |
| 20260905191612 | 82 | 14 | 2.0 | 3.0 | 0.00 | 0.00 | 0.00 | 66 | 1013.1 |
| 20260905191110 | 84 | 100 | 5.0 | 7.0 | 0.00 | 0.00 | 0.00 | 65 | 1013.0 |
| 20260905190609 | 84 | 143 | 3.0 | 3.0 | 0.00 | 0.00 | 0.00 | 64 | 1012.8 |
| 20260905190108 | 85 | 157 | 0.0 | 0.0 | 0.00 | 0.00 | 0.00 | 64 | 1013.0 |
| 20260905185607 | 85 | 103 | 2.0 | 2.0 | 0.00 | 0.00 | 0.00 | 63 | 1013.0 |
| 20260905185102 | 85 | 66 | 3.0 | 3.0 | 0.00 | 0.00 | 0.00 | 62 | 1012.9 |
| 20260905184556 | 87 | 4 | 6.0 | 10.0 | 0.00 | 0.00 | 0.00 | 60 | 1013.4 |
| 20260905184055 | 89 | 50 | 11.0 | 14.0 | 0.00 | 0.00 | 0.00 | 56 | 1013.8 |
| 20260905183555 | 95 | 50 | 3.0 | 3.0 | 0.00 | 0.00 | 0.00 | 53 | 1013.5 |
| 20260905183045 | 95 | 286 | 3.0 | 5.0 | 0.00 | 0.00 | 0.00 | 53 | 1013.1 |
| 20260905182545 | 95 | 330 | 2.0 | 3.0 | 0.00 | 0.00 | 0.00 | 52 | 1013.1 |
| 20260905182044 | 96 | 153 | 1.0 | 1.0 | 0.00 | 0.00 | 0.00 | 53 | 1013.0 |
| 20260905181539 | 98 | 96 | 0.0 | 1.0 | 0.00 | 0.00 | 0.00 | 51 | 1013.0 |
| 20260905181038 | 96 | 331 | 3.0 | 5.0 | 0.00 | 0.00 | 0.00 | 56 | 1013.5 |
| 20260905180533 | 95 | 11 | 1.0 | 2.0 | 0.00 | 0.00 | 0.00 | 56 | 1013.4 |
| 20260905180029 | 96 | 326 | 3.0 | 3.0 | 0.00 | 0.00 | 0.00 | 55 | 1013.3 |
| 20260905175528 | 96 | 343 | 2.0 | 2.0 | 0.00 | 0.00 | 0.00 | 54 | 1013.6 |
| 20260905175024 | 97 | 42 | 2.0 | 3.0 | 0.00 | 0.00 | 0.00 | 51 | 1013.8 |
| 20260905174519 | 95 | 316 | 4.0 | 5.0 | 0.00 | 0.00 | 0.00 | 53 | 1013.7 |
| 20260905174014 | 96 | 352 | 3.0 | 5.0 | 0.00 | 0.00 | 0.00 | 56 | 1013.7 |
| 20260905173511 | 95 | 309 | 4.0 | 7.0 | 0.00 | 0.00 | 0.00 | 54 | 1013.8 |
| 20260905173006 | 96 | 238 | 3.0 | 6.0 | 0.00 | 0.00 | 0.00 | 55 | 1013.8 |
| 20260905172504 | 96 | 236 | 6.0 | 7.0 | 0.00 | 0.00 | 0.00 | 53 | 1014.1 |
| 20260905172000 | 95 | 316 | 4.0 | 6.0 | 0.00 | 0.00 | 0.00 | 54 | 1014.2 |
| 20260905171456 | 96 | 278 | 4.0 | 6.0 | 0.00 | 0.00 | 0.00 | 53 | 1014.2 |
| 20260905170952 | 95 | 220 | 1.0 | 1.0 | 0.00 | 0.00 | 0.00 | 55 | 1014.4 |
| 20260905170448 | 95 | 251 | 3.0 | 3.0 | 0.00 | 0.00 | 0.00 | 56 | 1014.4 |
| 20260905165947 | 95 | 272 | 4.0 | 5.0 | 0.00 | 0.00 | 0.00 | 55 | 1014.5 |
| 20260905165442 | 96 | 35 | 2.0 | 2.0 | 0.00 | 0.00 | 0.00 | 57 | 1014.5 |
| 20260905164938 | 95 | 240 | 3.0 | 3.0 | 0.00 | 0.00 | 0.00 | 60 | 1014.7 |
| 20260905164432 | 96 | 202 | 2.0 | 3.0 | 0.00 | 0.00 | 0.00 | 57 | 1014.6 |
| 20260905163927 | 96 | 121 | 3.0 | 5.0 | 0.00 | 0.00 | 0.00 | 55 | 1014.7 |
| 20260905163424 | 94 | 200 | 1.0 | 2.0 | 0.00 | 0.00 | 0.00 | 60 | 1014.9 |
| 20260905162920 | 94 | 351 | 4.0 | 5.0 | 0.00 | 0.00 | 0.00 | 61 | 1014.9 |
| 20260905162414 | 94 | 200 | 2.0 | 3.0 | 0.00 | 0.00 | 0.00 | 60 | 1014.9 |
| 20260905161909 | 94 | 11 | 3.0 | 5.0 | 0.00 | 0.00 | 0.00 | 59 | 1015.2 |
| 20260905161409 | 94 | 357 | 3.0 | 5.0 | 0.00 | 0.00 | 0.00 | 62 | 1015.1 |
| 20260905160906 | 93 | 111 | 2.0 | 5.0 | 0.00 | 0.00 | 0.00 | 64 | 1014.9 |
| 20260905160400 | 92 | 254 | 3.0 | 3.0 | 0.00 | 0.00 | 0.00 | 64 | 1015.4 |
| 20260905155855 | 93 | 6 | 4.0 | 6.0 | 0.00 | 0.00 | 0.00 | 66 | 1015.2 |
| 20260905155354 | 93 | 197 | 3.0 | 3.0 | 0.00 | 0.00 | 0.00 | 62 | 1015.3 |
| 20260905154854 | 92 | 174 | 0.0 | 1.0 | 0.00 | 0.00 | 0.00 | 67 | 1015.6 |
| 20260905154349 | 92 | 205 | 4.0 | 5.0 | 0.00 | 0.00 | 0.00 | 67 | 1015.3 |
| 20260905153845 | 90 | 206 | 3.0 | 3.0 | 0.00 | 0.00 | 0.00 | 66 | 1015.1 |
| 20260905153341 | 92 | 93 | 1.0 | 2.0 | 0.00 | 0.00 | 0.00 | 65 | 1015.2 |
| 20260905152840 | 90 | 185 | 0.0 | 1.0 | 0.00 | 0.00 | 0.00 | 68 | 1015.2 |
| 20260905152339 | 90 | 261 | 3.0 | 5.0 | 0.00 | 0.00 | 0.00 | 70 | 1015.3 |
| 20260905151835 | 90 | 234 | 2.0 | 2.0 | 0.00 | 0.00 | 0.00 | 71 | 1015.3 |
| 20260905151330 | 89 | 206 | 2.0 | 3.0 | 0.00 | 0.00 | 0.00 | 72 | 1015.2 |
| 20260905150825 | 91 | 260 | 4.0 | 5.0 | 0.00 | 0.00 | 0.00 | 70 | 1015.2 |
| 20260905150319 | 90 | 289 | 5.0 | 7.0 | 0.00 | 0.00 | 0.00 | 71 | 1015.2 |
| 20260905145817 | 89 | 153 | 2.0 | 2.0 | 0.00 | 0.00 | 0.00 | 72 | 1015.2 |
| 20260905145311 | 89 | 187 | 2.0 | 3.0 | 0.00 | 0.00 | 0.00 | 72 | 1015.4 |
| 20260905144810 | 89 | 234 | 4.0 | 6.0 | 0.00 | 0.00 | 0.00 | 74 | 1015.4 |
| 20260905144306 | 89 | 175 | 1.0 | 1.0 | 0.00 | 0.00 | 0.00 | 73 | 1015.6 |
| 20260905143804 | 87 | 188 | 0.0 | 0.0 | 0.00 | 0.00 | 0.00 | 75 | 1015.2 |
| 20260905143259 | 87 | 181 | 1.0 | 1.0 | 0.00 | 0.00 | 0.00 | 76 | 1015.4 |
| 20260905142757 | 86 | 184 | 1.0 | 2.0 | 0.00 | 0.00 | 0.00 | 79 | 1015.4 |
| 20260905142252 | 86 | 259 | 3.0 | 3.0 | 0.00 | 0.00 | 0.00 | 78 | 1015.4 |
| 20260905141748 | 86 | 223 | 1.0 | 2.0 | 0.00 | 0.00 | 0.00 | 78 | 1015.4 |
| 20260905141243 | 86 | 202 | 2.0 | 3.0 | 0.00 | 0.00 | 0.00 | 78 | 1015.4 |
| 20260905140738 | 85 | 277 | 3.0 | 3.0 | 0.00 | 0.00 | 0.00 | 80 | 1015.6 |
| 20260905140233 | 86 | 247 | 3.0 | 5.0 | 0.00 | 0.00 | 0.00 | 78 | 1015.7 |
| 20260905135732 | 85 | 195 | 1.0 | 2.0 | 0.00 | 0.00 | 0.00 | 81 | 1015.7 |
| 20260905135229 | 84 | 172 | 4.0 | 5.0 | 0.00 | 0.00 | 0.00 | 81 | 1015.4 |
| 20260905134728 | 84 | 223 | 5.0 | 8.0 | 0.00 | 0.00 | 0.00 | 81 | 1015.6 |
| 20260905134227 | 84 | 195 | 2.0 | 3.0 | 0.00 | 0.00 | 0.00 | 82 | 1015.7 |
| 20260905133722 | 84 | 171 | 4.0 | 5.0 | 0.00 | 0.00 | 0.00 | 81 | 1015.4 |
| 20260905133217 | 83 | 209 | 2.0 | 2.0 | 0.00 | 0.00 | 0.00 | 84 | 1015.9 |
| 20260905132716 | 83 | 195 | 1.0 | 1.0 | 0.00 | 0.00 | 0.00 | 86 | 1015.3 |
| 20260905132212 | 83 | 174 | 3.0 | 5.0 | 0.00 | 0.00 | 0.00 | 86 | 1015.2 |
| 20260905131707 | 82 | 172 | 1.0 | 1.0 | 0.00 | 0.00 | 0.00 | 86 | 1015.8 |
| 20260905131202 | 81 | 236 | 2.0 | 3.0 | 0.00 | 0.00 | 0.00 | 88 | 1015.6 |
| 20260905130701 | 82 | 229 | 3.0 | 5.0 | 0.00 | 0.00 | 0.00 | 86 | 1015.7 |
| 20260905130156 | 82 | 161 | 1.0 | 2.0 | 0.00 | 0.00 | 0.00 | 86 | 1015.7 |
| 20260905125655 | 82 | 157 | 2.0 | 2.0 | 0.00 | 0.00 | 0.00 | 86 | 1015.7 |
| 20260905125152 | 82 | 183 | 2.0 | 3.0 | 0.00 | 0.00 | 0.00 | 87 | 1015.8 |
| 20260905124648 | 80 | 154 | 0.0 | 1.0 | 0.00 | 0.00 | 0.00 | 90 | 1015.6 |
| 20260905124144 | 80 | 233 | 3.0 | 3.0 | 0.00 | 0.00 | 0.00 | 90 | 1015.9 |
| 20260905123638 | 79 | 192 | 1.0 | 1.0 | 0.00 | 0.00 | 0.00 | 92 | 1015.9 |
| 20260905123136 | 79 | 235 | 3.0 | 3.0 | 0.00 | 0.00 | 0.00 | 92 | 1015.8 |
| 20260905122635 | 79 | 230 | 1.0 | 2.0 | 0.00 | 0.00 | 0.00 | 92 | 1015.8 |
| 20260905122130 | 79 | 227 | 2.0 | 3.0 | 0.00 | 0.00 | 0.00 | 92 | 1015.7 |
| 20260905121625 | 78 | 179 | 1.0 | 1.0 | 0.00 | 0.00 | 0.00 | 94 | 1015.9 |
| 20260905121121 | 77 | 163 | 0.0 | 0.0 | 0.00 | 0.00 | 0.00 | 97 | 1016.2 |
| 20260905120620 | 76 | 165 | 0.0 | 0.0 | 0.00 | 0.00 | 0.00 | 99 | 1016.1 |
| 20260905120115 | 75 | 164 | 0.0 | 0.0 | 0.00 | 0.00 | 0.00 | 99 | 1015.7 |
| 20260905115613 | 75 | 169 | 1.0 | 1.0 | 0.00 | 0.00 | 0.00 | 99 | 1015.8 |
| 20260905115108 | 74 | 171 | 0.0 | 0.0 | 0.00 | 0.00 | 0.00 | 99 | 1015.9 |
| 20260905114608 | 74 | 178 | 0.0 | 0.0 | 0.00 | 0.00 | 0.00 | 99 | 1015.6 |
| 20260905114107 | 73 | 193 | 0.0 | 0.0 | 0.00 | 0.00 | 0.00 | 99 | 1015.6 |
| 20260905113602 | 73 | 200 | 0.0 | 0.0 | 0.00 | 0.00 | 0.00 | 99 | 1015.3 |
| 20260905113058 | 73 | 200 | 0.0 | 0.0 | 0.00 | 0.00 | 0.00 | 99 | 1015.3 |
| 20260905112552 | 73 | 200 | 0.0 | 0.0 | 0.00 | 0.00 | 0.00 | 99 | 1015.3 |
| 20260905112048 | 73 | 200 | 0.0 | 0.0 | 0.00 | 0.00 | 0.00 | 99 | 1015.2 |
| 20260905111542 | 73 | 191 | 0.0 | 0.0 | 0.00 | 0.00 | 0.00 | 99 | 1015.1 |
| 20260905111042 | 73 | 191 | 0.0 | 0.0 | 0.00 | 0.00 | 0.00 | 99 | 1014.7 |
| 20260905110541 | 73 | 191 | 0.0 | 0.0 | 0.00 | 0.00 | 0.00 | 99 | 1014.9 |
| 20260905110036 | 73 | 192 | 0.0 | 0.0 | 0.00 | 0.00 | 0.00 | 99 | 1014.8 |
| 20260905105531 | 73 | 192 | 0.0 | 0.0 | 0.00 | 0.00 | 0.00 | 99 | 1014.6 |
| 20260905105030 | 73 | 192 | 0.0 | 0.0 | 0.00 | 0.00 | 0.00 | 99 | 1014.7 |
| 20260905104526 | 73 | 192 | 0.0 | 0.0 | 0.00 | 0.00 | 0.00 | 99 | 1014.7 |
| 20260905104026 | 73 | 192 | 0.0 | 0.0 | 0.00 | 0.00 | 0.00 | 99 | 1014.6 |
| 20260905103521 | 73 | 191 | 0.0 | 0.0 | 0.00 | 0.00 | 0.00 | 99 | 1014.4 |
| 20260905103017 | 73 | 192 | 0.0 | 0.0 | 0.00 | 0.00 | 0.00 | 99 | 1014.3 |
| 20260905102513 | 73 | 191 | 0.0 | 0.0 | 0.00 | 0.00 | 0.00 | 99 | 1014.2 |
| 20260905102009 | 73 | 192 | 0.0 | 0.0 | 0.00 | 0.00 | 0.00 | 99 | 1014.3 |
| 20260905101507 | 73 | 191 | 0.0 | 0.0 | 0.00 | 0.00 | 0.00 | 99 | 1014.4 |
| 20260905101005 | 73 | 191 | 0.0 | 0.0 | 0.00 | 0.00 | 0.00 | 99 | 1014.5 |
| 20260905100456 | 73 | 192 | 0.0 | 0.0 | 0.00 | 0.00 | 0.00 | 99 | 1014.3 |
| 20260905095955 | 73 | 206 | 1.0 | 2.0 | 0.00 | 0.00 | 0.00 | 99 | 1014.2 |
| 20260905095450 | 74 | 146 | 0.0 | 0.0 | 0.00 | 0.00 | 0.00 | 99 | 1014.6 |
| 20260905094946 | 74 | 148 | 0.0 | 1.0 | 0.00 | 0.00 | 0.00 | 99 | 1014.3 |
| 20260905094441 | 74 | 170 | 0.0 | 0.0 | 0.00 | 0.00 | 0.00 | 99 | 1014.6 |
| 20260905093939 | 74 | 168 | 0.0 | 0.0 | 0.00 | 0.00 | 0.00 | 99 | 1014.3 |
| 20260905093435 | 74 | 168 | 0.0 | 0.0 | 0.00 | 0.00 | 0.00 | 99 | 1014.4 |
| 20260905092930 | 74 | 168 | 0.0 | 0.0 | 0.00 | 0.00 | 0.00 | 99 | 1014.4 |
| 20260905092426 | 74 | 168 | 0.0 | 0.0 | 0.00 | 0.00 | 0.00 | 99 | 1014.6 |
| 20260905091920 | 74 | 162 | 0.0 | 0.0 | 0.00 | 0.00 | 0.00 | 99 | 1014.3 |
| 20260905091415 | 74 | 140 | 0.0 | 0.0 | 0.00 | 0.00 | 0.00 | 99 | 1014.3 |
| 20260905090914 | 74 | 140 | 0.0 | 0.0 | 0.00 | 0.00 | 0.00 | 99 | 1014.4 |
| 20260905090410 | 74 | 143 | 0.0 | 0.0 | 0.00 | 0.00 | 0.00 | 99 | 1014.5 |
| 20260905085909 | 74 | 143 | 0.0 | 0.0 | 0.00 | 0.00 | 0.00 | 99 | 1014.5 |
| 20260905085409 | 74 | 126 | 0.0 | 0.0 | 0.00 | 0.00 | 0.00 | 99 | 1014.5 |
| 20260905084905 | 74 | 75 | 0.0 | 0.0 | 0.00 | 0.00 | 0.00 | 99 | 1014.5 |
| 20260905084403 | 74 | 96 | 0.0 | 1.0 | 0.00 | 0.00 | 0.00 | 99 | 1014.4 |
| 20260905083858 | 74 | 181 | 0.0 | 0.0 | 0.00 | 0.00 | 0.00 | 99 | 1014.5 |
| 20260905083354 | 74 | 191 | 0.0 | 0.0 | 0.00 | 0.00 | 0.00 | 99 | 1014.7 |
| 20260905082850 | 74 | 190 | 0.0 | 0.0 | 0.00 | 0.00 | 0.00 | 99 | 1014.4 |
| 20260905082345 | 75 | 199 | 0.0 | 0.0 | 0.00 | 0.00 | 0.00 | 99 | 1014.5 |
| 20260905081840 | 75 | 200 | 1.0 | 1.0 | 0.00 | 0.00 | 0.00 | 99 | 1014.9 |
| 20260905081330 | 75 | 144 | 0.0 | 0.0 | 0.00 | 0.00 | 0.00 | 99 | 1014.7 |
| 20260905080829 | 75 | 144 | 0.0 | 0.0 | 0.00 | 0.00 | 0.00 | 99 | 1014.8 |
| 20260905080324 | 75 | 144 | 0.0 | 0.0 | 0.00 | 0.00 | 0.00 | 99 | 1014.9 |
| 20260905075822 | 75 | 144 | 0.0 | 0.0 | 0.00 | 0.00 | 0.00 | 99 | 1014.8 |
| 20260905075322 | 75 | 144 | 0.0 | 0.0 | 0.00 | 0.00 | 0.00 | 98 | 1014.9 |
| 20260905074821 | 75 | 144 | 0.0 | 0.0 | 0.00 | 0.00 | 0.00 | 98 | 1014.9 |
| 20260905074317 | 75 | 144 | 0.0 | 0.0 | 0.00 | 0.00 | 0.00 | 98 | 1015.3 |
| 20260905073812 | 75 | 144 | 0.0 | 0.0 | 0.00 | 0.00 | 0.00 | 98 | 1015.3 |
| 20260905073307 | 75 | 143 | 0.0 | 0.0 | 0.00 | 0.00 | 0.00 | 98 | 1014.9 |
| 20260905072802 | 75 | 143 | 0.0 | 0.0 | 0.00 | 0.00 | 0.00 | 98 | 1015.0 |
| 20260905072257 | 75 | 143 | 0.0 | 0.0 | 0.00 | 0.00 | 0.00 | 98 | 1015.3 |
| 20260905071754 | 75 | 144 | 0.0 | 0.0 | 0.00 | 0.00 | 0.00 | 98 | 1015.1 |
| 20260905071250 | 75 | 144 | 0.0 | 0.0 | 0.00 | 0.00 | 0.00 | 97 | 1014.9 |
| 20260905070744 | 75 | 144 | 0.0 | 0.0 | 0.00 | 0.00 | 0.00 | 97 | 1015.1 |
| 20260905070241 | 75 | 144 | 0.0 | 0.0 | 0.00 | 0.00 | 0.00 | 97 | 1015.2 |
| 20260905065739 | 75 | 144 | 0.0 | 0.0 | 0.00 | 0.00 | 0.00 | 97 | 1015.1 |
| 20260905065233 | 75 | 144 | 0.0 | 0.0 | 0.00 | 0.00 | 0.00 | 97 | 1015.4 |